一网星座-0086星 (ONEWEB-0086 )

导读 | 星芒AI

ONEWEB-0086 是 OneWeb 卫星通信公司发射的低轨通信卫星之一,属于其全球宽带互联网星座计划的一部分。该卫星运行在约 1200 公里的近地轨道,采用先进通信技术,旨在为全球偏远地区提供高速互联网接入。作为 OneWeb 扩展其卫星网络的重要组成部分,ONEWEB-0086 有助于增强系统的覆盖能力与服务稳定性,支持政府、企业及民用用户的通信需求,推动全球数字连接的实现。

基本信息
目录编号:
45456
目录名称:
ONEWEB-0086
国际标识:
2020-020AJ
轨道中心:
EARTH
卫星名称:
一网星座-0086星
卫星全名:
一网星座-0086星 (ONEWEB-0086 )
卫星状态:
在轨 (已飞行2093 天)
发射日期:
2020-03-21 UTC
国别 :
英国 (GB)
星等 :
--
轨道信息
数据来源 国际轨道数据
星历时间: 2025-12-13T05:52:22+0800
11小时前
查看轨道信息
半长轴: 7595.828km
偏心率: 0.000224
轨道倾角: 87.886°
近地点辐角 85.658°
升交点赤经 58.145°
平近点角 274.480°
近地点: 1215.991km
远地点: 1219.395km
周期: 109.805分钟
每日圈数: 13.11415
详细信息
平衡模式:
三轴稳定
覆盖范围:
全球
运营商:
一网卫星公司
运营商所在国:
英国
制造商(研发单位):
一网卫星公司
制造商所在国:
英国
使用方式:
暂无
卫星简介
OneWeb卫星网络由648颗重约125公斤的微型卫星组成,运行在1200公里的轨道上。 每颗卫星都能够提供至少每秒8千兆位的吞吐量,以使用其高吞吐量的Ku频段有效载荷为家庭和移动平台提供互联网接入。该卫星仍在工作。
2D轨道图
3D轨道图
轨道高度分析图
轨道倾角分析图
轨道综合分析图
查看轨道综合分析图